User: anonymous   Login
Location: Eastlake (historical)
(39.0077°N, 122.6678°W)
Time: 06:50:37
(UTC+00:00)
Language:

Atlas Centaur 2 - Orbit

View from above orbital plane
View from above orbital plane
View from above satellite
View from above satellite

Ground track
Ground track

The orbit data is extracted from the following two-line orbital elements,

1 00694U 63047A   21058.33734358  .00000373  00000-0  32414-4 0  9992
2 00694  30.3593 287.2725 0585338 240.0627 114.0603 14.02761992872913
Epoch (UTC): 27 February 2021 08:05:46
Eccentricity: 0.0585338
inclination: 30.3593°
perigee height: 459 km
apogee height: 1309 km
right ascension of ascending node: 287.2725°
argument of perigee: 240.0627°
revolutions per day: 14.02761992
mean anomaly at epoch: 114.0603°
orbit number at epoch: 87291

The dashed part of the orbit path shows where the satellite is in the earth's shadow,  

DLR